Location: Melizzano
(41.1500°N, 14.5000°E)
Time: 13:37:30
(UTC+00:00)

Cosmos 1606 - Pass Details

Date: 11 May 2021
Orbit: 503 x 525 km, 82.5° (Epoch: 19 June)

Event Time Altitude Azimuth Distance (km) Brightness Sun altitude
Rises 18:41:45 0° 186° (S) 2,590 6.0 -6.2°
Reaches altitude 10° 18:43:51 10° 187° (S) 1,713 5.1 -6.5°
Maximum altitude 18:47:36 89° 285° (WNW) 514 2.7 -7.1°
Drops below altitude 10° 18:51:25 10° 8° (N) 1,738 5.7 -7.7°
Sets 18:53:34 0° 8° (N) 2,633 6.6 -8.1°
